Regional Weather Roundup
Issued by NWS Northern Indiana

Home | Current Version | Previous Version | Text Only | Print | Product List | Glossary On
Versions: 1 2 3 4 5 6 7 8 9 10 11 12 13 14 15 16 17 18 19 20 21 22 23 24 25 26 27 28 29 30 31 32 33 34 35 36 37 38 39 40 41 42 43 44 45 46 47 48 49 50
000
ASUS43 KIWX 222310
RWRIWX

KIWX WEATHER ROUNDUP
NATIONAL WEATHER SERVICE NORTHERN INDIANA
700 PM EDT FRI SEP 22 2017

NOTE: "FAIR" INDICATES FEW OR NO CLOUDS BELOW 12,000 FEET WITH NO
SIGNIFICANT WEATHER AND/OR OBSTRUCTIONS TO VISIBILITY.

* THESE STATIONS ARE NOT UNDER NWS QUALITY CONTROL. THEY ALSO MAY NOT
  REPORT WEATHER SUCH AS PRECIPITATION OR FOG.

INZ001>027-230000-
NORTHERN INDIANA

CITY           SKY/WX    TMP DP  RH WIND       PRES   REMARKS
GARY*          CLEAR     88  61  40 E7        30.03S
VALPARAISO     CLEAR     92  66  42 CALM      30.05R
MICHIGAN CITY* CLEAR     82  70  65 CALM      30.05S
LAPORTE*       CLEAR     89  67  49 E6        30.05F
KNOX*          CLEAR     88  68  51 E5        30.05R
SOUTH BEND     CLEAR     88  67  49 CALM      30.06S
ELKHART*       CLEAR     90  64  43 CALM      30.06R
GOSHEN         CLEAR     88  66  48 E5        30.06S
MONTICELLO*    CLEAR     88  66  47 CALM      30.04R
LOGANSPORT*    CLEAR     86  66  51 CALM      30.06R
WARSAW*        CLEAR     84  70  61 CALM      30.07R
AUBURN*        CLEAR     86  70  58 CALM      30.08R
FORT WAYNE     PTCLDY    83  71  67 SE3       30.07R
HUNTINGTON*    CLEAR     86  68  56 CALM      30.06R
PERU/GRISSOM   PTCLDY    84  65  52 E14       30.06R THUNDER

$$
INZ028>050-230000-
CENTRAL INDIANA

CITY           SKY/WX    TMP DP  RH WIND       PRES   REMARKS
LAFAYETTE      CLOUDY    84  70  62 SW3       30.03R
KOKOMO*        LGT RAIN  86  67  52 CALM      30.07S
MUNCIE*        LGT RAIN  78  70  76 CALM      30.06S
INDIANAPOLIS   CLOUDY    83  64  52 E3        30.04S

$$
MIZ043>046-050>051-056>058-064>065-071>073-077>080-230000-
SOUTHWEST LOWER MICHIGAN

CITY           SKY/WX    TMP DP  RH WIND       PRES   REMARKS
BATTLE CREEK   CLEAR     89  66  46 S5        30.08S
BENTON HARBOR  CLEAR     85  65  51 CALM      30.05S
COLDWATER*     PTCLDY    82  62  51 E7        30.09S
HILLSDALE*     CLOUDY    79  55  44 SE5       30.11S
HOLLAND        CLEAR     86  64  47 W5        30.07S
GRAND RAPIDS   PTCLDY    91  64  40 SW7       30.06S
KALAMAZOO      CLEAR     90  61  37 SE3       30.07R
STURGIS*       CLEAR     88  65  46 CALM      30.07R
THREE RIVERS*  FAIR      88  68  51 CALM      30.07S

$$
OHZ001>008-015>018-024>025-230000-
NORTHWEST OHIO

CITY           SKY/WX    TMP DP  RH WIND       PRES   REMARKS
WAUSEON*       FAIR      82  70  65 E5        30.08R
DEFIANCE       CLEAR     86  70  58 NE3       30.07R
FINDLAY        CLEAR     86  64  47 NE8       30.06S
TOLEDO EXPRESS CLEAR     85  71  63 E6        30.08R
TOLEDO METCALF CLEAR     82  66  58 E6        30.09R
LIMA           CLEAR     85  67  54 NE6       30.07S

$$
AND FOR LAKE MICHIGAN COASTAL AND OPEN LAKE BUOY OBSERVATIONS

STATION/POSITION TEMP    WIND        PRES    VSBY  WAVE
                 AIR SEA DIR/SP/G                  HT/PER
                 (F)     (DEG/KT/KT) (MB)    (MI)  (FT/S)
CALUMET HARBOR    81      90/  7/ 10 1016.2S
MICHIGAN CITY     80      50/ 13/ 14   N/A
BURNS HARBOR      80      80/ 11/ 13 1017.3S
SAINT JOSEPH      85      20/  4/  6 1017.9
SOUTH LAKE BUOY   74 71  100/  6/  8 1017.2R         0
4 MI NW BRIDGMAN  77 74   80/  6/  8 1017.2          0
MICHIGAN CITY     76 74   70/  6/  6   N/A           0

$$
&&




USA.gov is the U.S. government's official web portal to all federal, state and local government web resources and services.